Weather History for KALO - April, 2014

Change the Weather History Date:

Wednesday, April 30, 2014

  Actual Average Record
Temperature  
Mean Temperature 38 °F 55 °F  
Max Temperature 41 °F 67 °F 92 °F (1910)
Min Temperature 34 °F 43 °F 26 °F (1956)
Degree Days  
Heating Degree Days 27 11  
Month to date heating degree days 568 492  
Since 1 July heating degree days 8108 6816  
Cooling Degree Days 0 0  
Month to date cooling degree days 2 8  
Year to date cooling degree days 2 8  
Moisture  
Dew Point 37 °F    
Average Humidity 93    
Maximum Humidity 93    
Minimum Humidity 92    
Precipitation  
Precipitation 0.38 in 0.15 in 2.33 in (1997)
Month to date precipitation 7.24 3.71  
Year to date precipitation 11.37 7.59  
Snow  
Snow 0.00 in 0.00 in 0.40 in (1997)
Month to date snowfall 0.4 1.8  
Since 1 July snowfall 58.0 35.3  
Snow Depth 0.00 in    
Sea Level Pressure  
Sea Level Pressure 29.74 in    
Wind  
Wind Speed 9 mph (WNW)    
Max Wind Speed 15 mph    
Max Gust Speed 20 mph    
Visibility 7 miles    
Events Rain    
T = Trace of Precipitation, MM = Missing Value Source: NWS Daily Summary

Daily Weather History Graph

Daily Weather History Graph

Search for Another Location

Airport or City:

Trip Planner

Search our weather history database for the weather conditions in past years. The results will help you decide how hot, cold, wet, or windy it might be!

Date:

Astronomy

Apr. 30, 2014 Rise Set
Actual Time 6:05 AM CDT 8:08 PM CDT
Civil Twilight 5:35 AM CDT 8:39 PM CDT
Nautical Twilight 4:57 AM CDT 9:17 PM CDT
Astronomical Twilight 4:16 AM CDT 9:58 PM CDT
Moon 7:06 AM CDT (4/30) 9:49 PM CDT (4/30)
Length of Visible Light 15h 04m
Length of Day
14h 02m
New Moon, 2% of the Moon is Illuminated
Apr 30
New Moon
May 6
First Quarter
May 14
Full
May 21
Last Quarter
May 28
New

Hourly Weather History & Observations

Time (CDT) Temp. Windchill Dew Point Humidity Pressure Visibility Wind Dir Wind Speed Gust Speed Precip Events Conditions
12:54 AM 34.0 °F 25.5 °F 33.1 °F 96% 29.70 in 10.0 mi NW 11.5 mph - 0.01 in   Overcast
1:54 AM 35.1 °F 27.9 °F 33.1 °F 92% 29.70 in 10.0 mi WNW 9.2 mph - 0.00 in Rain Light Rain
2:54 AM 35.1 °F 27.4 °F 33.1 °F 92% 29.70 in 10.0 mi WNW 10.4 mph - 0.00 in   Overcast
3:54 AM 35.1 °F 27.4 °F 33.1 °F 92% 29.70 in 6.0 mi WNW 10.4 mph - N/A   Overcast
4:54 AM 35.1 °F 27.9 °F 33.1 °F 92% 29.71 in 10.0 mi WNW 9.2 mph - N/A   Overcast
5:54 AM 35.1 °F 27.4 °F 33.1 °F 92% 29.72 in 4.0 mi WNW 10.4 mph - N/A   Overcast
6:54 AM 35.1 °F 27.9 °F 34.0 °F 96% 29.72 in 3.0 mi WNW 9.2 mph - N/A   Overcast
7:54 AM 35.1 °F 28.6 °F 34.0 °F 96% 29.73 in 7.0 mi WNW 8.1 mph - N/A   Overcast
8:07 AM 35.1 °F 27.9 °F 34.0 °F 96% 29.70 in 6.0 mi WNW 9.2 mph - N/A   Overcast
8:31 AM 36.0 °F 29.0 °F 34.0 °F 93% 29.71 in 5.0 mi WNW 9.2 mph - N/A   Overcast
8:54 AM 36.0 °F 29.0 °F 34.0 °F 93% 29.73 in 3.0 mi WNW 9.2 mph - N/A   Overcast
9:54 AM 37.4 °F 31.4 °F 35.6 °F 93% 29.72 in 5.0 mi WNW 8.1 mph - N/A   Overcast
10:54 AM 37.9 °F 31.5 °F 36.0 °F 93% 29.75 in 4.0 mi WNW 9.2 mph - 0.01 in Rain Light Rain
11:33 AM 39.0 °F 32.8 °F 36.0 °F 89% 29.73 in 10.0 mi WNW 9.2 mph - 0.00 in   Overcast
11:54 AM 39.0 °F 32.3 °F 36.0 °F 89% 29.75 in 10.0 mi WNW 10.4 mph - 0.00 in   Overcast
12:40 PM 39.0 °F 32.8 °F 37.0 °F 93% 29.73 in 7.0 mi WNW 9.2 mph - N/A   Overcast
12:54 PM 39.0 °F 32.8 °F 36.0 °F 89% 29.75 in 5.0 mi WNW 9.2 mph - 0.00 in Rain Light Rain
1:02 PM 39.0 °F 32.8 °F 36.0 °F 89% 29.73 in 7.0 mi WNW 9.2 mph - 0.00 in   Overcast
1:08 PM 39.0 °F 31.8 °F 37.0 °F 93% 29.73 in 6.0 mi WNW 11.5 mph - 0.01 in Rain Light Rain
1:39 PM 39.9 °F 33.4 °F 37.0 °F 89% 29.73 in 6.0 mi NW 10.4 mph - 0.01 in Rain Light Rain
1:50 PM 39.2 °F 32.5 °F 37.4 °F 93% 29.74 in 6.0 mi WNW 10.4 mph - 0.01 in Rain Light Rain
1:54 PM 39.0 °F 32.8 °F 37.0 °F 93% 29.76 in 6.0 mi WNW 9.2 mph - 0.02 in Rain Light Rain
2:10 PM 39.9 °F 32.9 °F 37.9 °F 93% 29.74 in 6.0 mi WNW 11.5 mph - 0.00 in Rain Light Rain
2:19 PM 39.9 °F 33.4 °F 37.0 °F 89% 29.74 in 7.0 mi WNW 10.4 mph - 0.00 in   Overcast
2:29 PM 39.9 °F 33.9 °F 37.9 °F 93% 29.74 in 6.0 mi WNW 9.2 mph - 0.00 in   Overcast
2:52 PM 39.2 °F 33.6 °F 37.4 °F 93% 29.75 in 4.0 mi West 8.1 mph - 0.00 in Rain Light Rain
2:54 PM 39.9 °F 33.9 °F 37.9 °F 93% 29.77 in 4.0 mi West 9.2 mph - 0.00 in Rain Light Rain
3:40 PM 39.9 °F 33.4 °F 37.9 °F 93% 29.74 in 9.0 mi WNW 10.4 mph - 0.01 in Rain Light Rain
3:54 PM 39.9 °F 33.9 °F 37.9 °F 93% 29.77 in 7.0 mi West 9.2 mph - 0.01 in Rain Light Rain
4:07 PM 39.9 °F 33.9 °F 37.9 °F 93% 29.74 in 9.0 mi West 9.2 mph - 0.01 in Rain Light Rain
4:14 PM 39.9 °F 35.1 °F 37.9 °F 93% 29.74 in 9.0 mi West 6.9 mph - 0.01 in Rain Light Rain
4:25 PM 39.9 °F 34.5 °F 37.9 °F 93% 29.74 in 7.0 mi West 8.1 mph - 0.01 in Rain Light Rain
4:54 PM 41.0 °F 35.8 °F 39.0 °F 93% 29.77 in 6.0 mi West 8.1 mph - 0.02 in Rain Light Rain
5:05 PM 39.9 °F 33.9 °F 37.9 °F 93% 29.74 in 6.0 mi WNW 9.2 mph - 0.01 in Rain Light Rain
5:18 PM 39.9 °F 33.4 °F 37.9 °F 93% 29.74 in 8.0 mi WNW 10.4 mph - 0.01 in Rain Light Rain
5:30 PM 39.9 °F 35.1 °F 37.9 °F 93% 29.74 in 7.0 mi WNW 6.9 mph - 0.02 in Rain Light Rain
5:37 PM 39.9 °F 35.1 °F 37.9 °F 93% 29.74 in 6.0 mi West 6.9 mph - 0.02 in Rain Light Rain
5:45 PM 39.9 °F 33.9 °F 37.9 °F 93% 29.74 in 6.0 mi WNW 9.2 mph - 0.03 in Rain Light Rain
5:54 PM 39.9 °F 33.9 °F 37.0 °F 89% 29.76 in 8.0 mi WNW 9.2 mph - 0.04 in Rain Light Rain
6:01 PM 39.9 °F 35.1 °F 37.0 °F 89% 29.74 in 10.0 mi WNW 6.9 mph - 0.00 in Rain Light Rain
6:35 PM 39.9 °F 34.5 °F 37.0 °F 89% 29.74 in 10.0 mi WNW 8.1 mph - 0.02 in Rain Light Rain
6:45 PM 39.9 °F 36.7 °F 37.9 °F 93% 29.74 in 9.0 mi WNW 4.6 mph - 0.03 in Rain Light Rain
6:54 PM 39.9 °F 35.8 °F 37.0 °F 89% 29.76 in 8.0 mi West 5.8 mph - 0.04 in Rain Light Rain
7:54 PM 39.2 °F 35.9 °F 37.4 °F 93% 29.74 in 6.0 mi WNW 4.6 mph - N/A Rain Light Rain
8:50 PM 41.0 °F 34.7 °F 39.2 °F 93% 29.74 in 8.0 mi WNW 10.4 mph - 0.06 in Rain Light Rain
8:54 PM 41.0 °F 35.8 °F 39.2 °F 93% 29.73 in 8.0 mi WNW 8.1 mph - N/A Rain Light Rain
9:28 PM 41.0 °F 35.8 °F 39.0 °F 93% 29.74 in 7.0 mi WNW 8.1 mph - 0.03 in Rain Light Rain
9:50 PM 41.0 °F 35.8 °F 39.2 °F 93% 29.73 in 8.0 mi WNW 8.1 mph - 0.05 in Rain Light Rain
9:54 PM 41.0 °F 34.3 °F 39.0 °F 93% 29.76 in 8.0 mi WNW 11.5 mph - 0.06 in Rain Light Rain
10:54 PM 41.0 °F 35.2 °F 39.0 °F 93% 29.75 in 6.0 mi WNW 9.2 mph - 0.03 in Rain Light Rain
11:16 PM 41.0 °F 35.2 °F 39.0 °F 93% 29.72 in 8.0 mi WNW 9.2 mph - 0.01 in Rain Light Rain
11:19 PM 41.0 °F 35.2 °F 39.0 °F 93% 29.72 in 9.0 mi WNW 9.2 mph - 0.01 in Rain Light Rain
11:54 PM 41.0 °F 35.2 °F 39.2 °F 93% 29.72 in 10.0 mi WNW 9.2 mph 19.6 mph N/A Rain Light Rain